Regional Weather Roundup
Issued by NWS State College, PA

Home | Current Version | Previous Version | Text Only | Print | Product List | Glossary Off
Versions: 1 2 3 4 5 6 7 8 9 10 11 12 13 14 15 16 17 18 19 20 21 22 23 24 25 26 27 28 29 30 31 32 33 34 35 36 37 38 39 40 41 42 43 44 45 46 47 48 49 50

000
ASUS41 KCTP 131810
RWRCTP

REGIONAL WEATHER ROUNDUP
NATIONAL WEATHER SERVICE STATE COLLEGE PA
200 PM EDT SUN JUL 13 2014

Note: "fair" indicates few or no clouds below 12,000 feet with no
significant weather and/or obstructions to visibility.

* = STATION THAT DOES NOT REPORT PRECIPITATION /E.G. RAIN...SNOW...ETC/
    THUNDER OR FOG.

PAZ002>004-007>009-013>016-020>023-029>032-131900-
WESTERN PENNSYLVANIA

CITY           SKY/WX    TMP DP  RH WIND       PRES   REMARKS
ERIE           PTSUNNY   79  70  74 W13G30    29.86R
MEADVILLE      LGT RAIN  75  69  81 SW9G28    29.91S
FRANKLIN*      CLOUDY    81  70  69 SW9G18    29.93F
NEW CASTLE       N/A     85  72  65 SW12      29.92F
BEAVER COUNTY  CLOUDY    82  70  65 SW8       29.94F
BUTLER*        CLOUDY    82  70  65 SW10G18   29.96S
PITTSBURGH INT CLOUDY    83  69  62 SW15      29.95F
PITTSBURGH     CLOUDY    83  66  56 SW14G23   29.96F
INDIANA*       PTSUNNY   81  68  65 W12G22    30.01S
LATROBE        NOT AVBL
WASHINGTON CO* CLOUDY    82  70  65 SW7       29.99S
$$

PAZ004>006-010>012-017>019-024>028-033>037-041-042-045-046-049>053-131900-
CENTRAL PENNSYLVANIA

CITY           SKY/WX    TMP DP  RH WIND       PRES   REMARKS
BRADFORD       CLOUDY    75  68  78 SW8G18    29.93F
DUBOIS         PTSUNNY   80  69  69 SW13G21   29.94F
CLEARFIELD     PTSUNNY   80  68  66 SW13G22   29.96F
JOHNSTOWN      PTSUNNY   80  65  59 SW15G24   30.02F
ALTOONA        CLOUDY    82  69  64 S9        29.99F
STATE COLLEGE  PTSUNNY   82  68  61 SW9       29.95F
WILLIAMSPORT   PTSUNNY   84  68  58 S9G22     29.90F
SELINSGROVE    PTSUNNY   83  70  64 S8        29.94F
FT INDIANTOWN  CLOUDY    81  73  76 SW7       29.99S
CAPITAL CITY   CLOUDY    81  71  71 S6        29.97F
HARRISBURG     CLOUDY    83  70  64 S7        29.97F
YORK           CLOUDY    83  72  69 S7        29.99F
$$

PAZ038>040-043-044-047-048-054-055-060>062-067>071-131900-
EASTERN PENNSYLVANIA

CITY           SKY/WX    TMP DP  RH WIND       PRES   REMARKS
SCRANTON       CLOUDY    83  67  58 SW9G21    29.96F
MOUNT POCONO   CLOUDY    76  67  73 S13       30.03F
ALLENTOWN      PTSUNNY   86  70  58 S12       29.97F
QUAKERTOWN*    PTCLDY    84  73  70 S8        30.00F
READING        MOSUNNY   85  71  63 SW8       29.97F
LANCASTER      PTSUNNY   84  71  65 S12       29.99F
COATESVILLE    PTCLDY    82  75  78 S7        30.03S
POTTSTOWN      MOSUNNY   85  72  65 SW8       30.00F
BLUE BELL      MOSUNNY   88  72  58 S7        29.99F
DOYLESTOWN     MOSUNNY   84  72  67 S8        29.99F
WILLOW GROVE   NOT AVBL
NORTH PHILA    MOSUNNY   89  69  51 S9G22     30.00F
PHILADELPHIA   PTSUNNY   89  68  49 SW14      29.99F
$$


USA.gov is the U.S. government's official web portal to all federal, state and local government web resources and services.